Home   Weather   Horten   Past weeks

Flag for Norway Past Weather in Horten, Norway — Yesterday and Last 2 Weeks

48 °F

Passing clouds.

Feels Like: 46 °F
Forecast: 39 / 42 °F
Wind: 6 mph from Southwest

Location: Oseberg

Current Time: Oct 22, 2016 at 12:08:24 AM

Latest Report: Oct 21, 2016 at 10:50 PM

Visibility: N/A

Pressure: 30.27 "Hg

Humidity: 87%

Dew Point: 45 °F

Location of HortenLocation

Past Weather in Horten — Graph


Horten Temperature Yesterday

Maximum temperature yesterday: 52 °F (at 9:16 AM)
Minimum temperature yesterday: 48 °F (at 10:50 PM)
Average temperature yesterday: 50 °F

High & Low Weather Summary for the Past Weeks

High57 °F (Oct 7, 5:50 PM)100% (Oct 20, 1:20 PM)30.54 "Hg (Oct 20, 1:20 PM)
Low48 °F (Oct 12, 10:20 PM)47% (Oct 15, 8:20 PM)29.83 "Hg (Oct 18, 3:50 AM)
Average52 °F80%30.30 "Hg
* Reported Oct 6 10:50 PM — Oct 21 10:50 PM, Horten, Weather by CustomWeather, © 2016

Note: Actual official high and low records may vary slightly from our data, if they occured in-between our weather recording intervals... More about our weather records


Horten Weather History for the Previous 24 Hours

Scroll right to see more
Time TempWeatherWind HumidityBarometerVisibility
10:50 PM
Fri, Oct 21
48 °FPassing clouds.6 mph87%30.27 "HgN/A
9:50 PM50 °FPassing clouds.6 mph76%30.27 "HgN/A
8:50 PM50 °FPassing clouds.6 mph82%30.27 "HgN/A
7:50 PM50 °FPartly cloudy.6 mph82%30.27 "HgN/A
6:50 PM50 °FPartly cloudy.5 mph82%30.27 "HgN/A
6:20 PM50 °FPassing clouds.7 mph82%30.27 "HgN/A
5:50 PM50 °FMostly cloudy.8 mph76%30.24 "HgN/A
5:20 PM50 °FMore clouds than sun.9 mph76%30.24 "HgN/A
4:50 PM52 °FScattered showers. Partly sunny.10 mph77%30.24 "HgN/A
4:20 PM50 °FScattered showers. Partly sunny.13 mph88%30.24 "HgN/A
3:50 PM50 °FScattered showers. Broken clouds.16 mph82%30.24 "HgN/A
3:20 PM52 °FBroken clouds.8 mph82%30.24 "HgN/A
2:50 PM50 °FScattered showers. Broken clouds.8 mph82%30.24 "HgN/A
1:50 PM52 °FPartly sunny.9 mph77%30.24 "HgN/A
1:20 PM52 °FPartly sunny.9 mph82%30.24 "HgN/A
12:20 PM52 °FPartly sunny.9 mph77%30.24 "HgN/A
11:50 AM52 °FPartly sunny.9 mph82%30.24 "HgN/A
11:20 AM52 °FMore clouds than sun.10 mph82%30.24 "HgN/A
10:50 AM52 °FPartly sunny.9 mph82%30.24 "HgN/A
10:20 AM50 °FPartly sunny.8 mph82%30.24 "HgN/A
9:16 AM52 °FPartly sunny.9 mph77%30.24 "HgN/A
8:50 AM50 °FSunny.9 mph88%30.24 "Hg10 mi
8:20 AM50 °FSunny.10 mph82%30.21 "Hg10 mi
7:50 AM50 °FClear.10 mph82%30.21 "Hg10 mi
7:20 AM50 °FClear.10 mph82%30.21 "Hg10 mi
6:50 AM50 °FPassing clouds.10 mph82%30.21 "HgN/A
6:20 AM50 °FPassing clouds.10 mph82%30.21 "HgN/A
5:50 AM50 °FPassing clouds.9 mph82%30.21 "HgN/A
4:50 AM50 °FPassing clouds.9 mph82%30.21 "HgN/A
3:50 AM50 °FClear.10 mph82%30.21 "Hg10 mi
2:50 AM50 °FPassing clouds.10 mph82%30.24 "HgN/A
1:50 AM50 °FPassing clouds.9 mph82%30.24 "HgN/A
12:50 AM50 °FPassing clouds.10 mph88%30.24 "HgN/A
Weather by CustomWeather, © 2016

See weather overviewHow to use our weather pages